[[{"header":{"parameterUnit":"m.s-1","parameterCategory":1,"la1":30.2991,"la2":30.254,"lo1":-89.0895,"lo2":-89.0444,"dy":0.0017,"dx":0.0017,"nx":28,"ny":28,"refTime":"2024-02-04T09:00:00:Z","depth":0,"parameterNumber":2,"parameterNumberName":"U-component_of_WINDS"},"data":[0,0,0,0,0,0,0,0,0,0,0,0,0,0,0,0,0,0,0,0,0,0,0,0,0,0,0,0,0,0,0,0,0,0,0,0,0,0,0,0,0,0,0,0,0,0,0,0,0,0,0,0,0,0,0,0,0,0,1.1208,1.121,0,1.1343,1.1345,1.1346,1.139,1.139,1.1389,1.1388,1.1528,1.1532,1.1537,0,0,0,0,0,0,0,0,0,0,0,0,0,1.0992,1.0996,1.1208,1.121,1.1212,1.1343,1.1345,1.1346,1.139,1.1389,1.1389,1.1388,1.1527,1.1532,1.1537,0,0,0,0,0,0,0,0,0,0,0,0,0,1.1103,1.0997,1.1208,1.1249,1.1254,1.1342,1.1345,1.1347,1.139,1.1389,1.1389,1.1388,1.1525,1.1531,1.1538,1.1595,0,0,1.1557,1.156,0,0,0,0,0,0,0,0,1.1096,1.111,1.1241,1.1246,1.1252,1.1349,1.132,1.143,1.1391,1.1339,1.1388,1.1387,1.1469,1.148,1.1508,1.1602,1.1608,1.1558,1.1562,1.1565,1.1566,0,0,0,0,0,0,0,1.1089,1.1105,1.1262,1.1243,1.125,1.1262,1.1277,1.1341,1.1407,1.1343,1.1347,1.1362,1.1472,1.1501,1.1511,1.161,1.1558,1.1563,1.1567,1.157,1.1761,1.1763,0,0,0,0,0,0,1.1074,1.1098,1.1257,1.1266,1.117,1.1267,1.1283,1.1319,1.1407,1.1419,1.1363,1.1363,1.1491,1.1504,1.1516,1.1592,1.1565,1.1571,1.1574,1.176,1.1762,1.1763,0,0,0,0,0,0,1.1069,1.1087,1.1252,1.1183,1.1205,1.1271,1.1311,1.1322,1.1351,1.1422,1.1434,1.138,1.1491,1.1507,1.1576,1.1597,1.1573,1.1579,1.1759,1.1761,1.1762,1.1741,0,0,0,0,0,0,1.1062,1.1085,1.1107,1.1183,1.1208,1.1308,1.1312,1.1325,1.1362,1.1364,1.1441,1.1453,1.1491,1.1566,1.1582,1.1605,1.1584,1.1757,1.176,1.1762,1.174,1.1742,1.1743,0,0,0,0,0,1.1055,1.1095,1.1108,1.1126,1.1236,1.1309,1.1323,1.1366,1.1363,1.1386,1.1432,1.1451,1.1592,1.1573,1.1591,1.1617,1.1756,1.1759,1.1762,1.1739,1.1741,1.1743,0,0,0,0,0,0,1.1019,1.1106,1.112,1.1187,1.124,1.1316,1.1346,1.1367,1.1422,1.1422,1.1474,1.1491,1.1556,1.1593,1.157,1.1679,1.1675,1.1682,1.1652,1.1654,1.1656,1.1646,1.159,0,0,0,0,0,1.1019,1.107,1.1143,1.1194,1.1221,1.1279,1.1312,1.134,1.1398,1.1421,1.1472,1.1528,1.1585,1.1622,1.1678,1.1746,1.1765,1.1773,1.1774,1.1775,1.1781,1.1822,1.1827,1.1772,1.1772,1.1772,0,0,1.1019,1.1073,1.1102,1.1189,1.1234,1.1287,1.1297,1.1352,1.1393,1.143,1.1498,1.1537,1.1603,1.1672,1.1705,1.1705,1.18,1.1779,1.1779,1.1784,1.1825,1.183,1.1835,1.1774,1.1774,1.1774,0,0,1.1047,1.1092,1.1141,1.1186,1.1254,1.1293,1.1305,1.1378,1.1406,1.1475,1.1505,1.1554,1.1651,1.1698,1.1734,1.1783,1.1803,1.18,1.1809,1.1848,1.1853,1.1857,1.1876,1.1882,1.1805,1.1805,1.1805,0,1.1039,1.1119,1.1164,1.1218,1.1256,1.1293,1.1344,1.1386,1.1468,1.1495,1.1494,1.1618,1.1665,1.1747,1.1759,1.1787,1.1803,1.1792,1.1848,1.1853,1.1857,1.1876,1.1883,1.1804,1.1804,1.1805,1.1805,0,1.1107,1.1162,1.1194,1.1273,1.1316,1.1368,1.1422,1.1459,1.1485,1.1524,1.1596,1.1654,1.1724,1.1746,1.1771,1.1832,1.183,1.1838,1.1836,1.1861,1.188,1.1887,1.1803,1.1804,1.1804,1.1804,0,0,1.1115,1.122,1.1231,1.1269,1.1348,1.1392,1.1447,1.1516,1.1548,1.1604,1.1653,1.1736,1.1745,1.1786,1.1817,1.1852,1.1889,1.1856,1.1858,1.1861,1.1963,1.1957,1.1965,1.1903,1.1905,1.1906,1.1958,0,1.1154,1.1253,1.1296,1.1376,1.1429,1.1466,1.1514,1.1569,1.1608,1.166,1.1703,1.1762,1.1768,1.1793,1.1829,1.1877,1.1911,1.1874,1.1951,1.1953,1.1934,1.1974,1.1968,1.2014,1.1966,1.1967,1.1968,0,1.1212,1.1269,1.1355,1.143,1.1454,1.1496,1.1564,1.1613,1.1676,1.1703,1.175,1.178,1.1842,1.1835,1.1922,1.1896,1.193,1.1959,1.1962,1.1971,1.1962,1.1986,1.203,1.2037,1.1979,1.1978,1.1978,0,1.1211,1.131,1.1375,1.1406,1.1494,1.1524,1.1562,1.1625,1.1665,1.1724,1.1751,1.1817,1.1853,1.1904,1.1952,1.1943,1.2035,1.2032,1.206,1.2059,1.2078,1.2077,1.2129,1.2099,1.2099,1.2098,1.2098,0,1.125,1.1302,1.1376,1.1415,1.1475,1.1525,1.1583,1.1624,1.1681,1.173,1.1766,1.1812,1.1872,1.1927,1.1965,1.2032,1.2048,1.2072,1.2082,1.207,1.2067,1.2093,1.2092,1.21,1.21,1.21,1.2099,0,1.1259,1.1311,1.1384,1.1463,1.1484,1.1524,1.1592,1.1634,1.1675,1.1738,1.1756,1.1821,1.1888,1.1941,1.2027,1.2053,1.2124,1.2134,1.2102,1.2108,1.2134,1.2131,1.2206,1.2219,1.2178,1.2178,1.2179,0,1.1281,1.1322,1.1405,1.1441,1.148,1.1537,1.1578,1.1629,1.1671,1.1748,1.178,1.1849,1.1907,1.2012,1.2068,1.2135,1.2148,1.217,1.2158,1.2146,1.2151,1.2148,1.2153,1.2171,1.2171,1.2172,1.2172,0,1.1316,1.134,1.1397,1.1464,1.1512,1.1567,1.1623,1.1651,1.1713,1.1758,1.1826,1.1871,1.1961,1.2029,1.2103,1.2144,1.2169,1.2175,1.2185,1.2174,1.2154,1.2167,1.2107,1.2173,1.2173,1.2173,1.2173,1.2173,1.1333,1.1372,1.1437,1.1501,1.1549,1.1601,1.1644,1.1692,1.1749,1.1826,1.1853,1.1924,1.199,1.2091,1.2134,1.2191,1.2193,1.2207,1.2211,1.2214,1.2214,1.2144,1.2204,1.2204,1.2204,1.2204,1.2204,0,1.1371,1.1415,1.1473,1.1551,1.1601,1.162,1.1684,1.1725,1.1787,1.1846,1.1903,1.1983,1.2051,1.2113,1.2184,1.2218,1.2232,1.2235,1.2234,1.2243,1.2207,1.2192,1.2223,1.2223,1.2223,1.2223,1.2223,1.2223,1.1396,1.1463,1.1496,1.1588,1.1633,1.1702,1.1738,1.1787,1.1835,1.1922,1.1979,1.2019,1.208,1.2157,1.222,1.2237,1.2262,1.2263,1.2283,1.2248,1.2246,1.2243,1.2229,1.2268,1.2268,1.2315,1.2315,1.2316]},{"header":{"parameterUnit":"m.s-1","parameterCategory":1,"la1":30.2991,"la2":30.254,"lo1":-89.0895,"lo2":-89.0444,"dy":0.0017,"dx":0.0017,"nx":28,"ny":28,"refTime":"2024-02-04T09:00:00:Z","depth":0,"parameterNumber":3,"parameterNumberName":"V-component_of_WINDS"},"data":[0,0,0,0,0,0,0,0,0,0,0,0,0,0,0,0,0,0,0,0,0,0,0,0,0,0,0,0,0,0,0,0,0,0,0,0,0,0,0,0,0,0,0,0,0,0,0,0,0,0,0,0,0,0,0,0,0,0,0.6352,0.6352,0,0.636,0.636,0.636,0.6329,0.6328,0.6328,0.6327,0.6337,0.6338,0.6339,0,0,0,0,0,0,0,0,0,0,0,0,0,0.6311,0.6312,0.6352,0.6352,0.6352,0.636,0.636,0.636,0.6329,0.6328,0.6327,0.6326,0.6337,0.6338,0.634,0,0,0,0,0,0,0,0,0,0,0,0,0,0.6325,0.6312,0.6352,0.6338,0.6336,0.636,0.636,0.636,0.633,0.6328,0.6327,0.6326,0.6336,0.6338,0.634,0.6378,0,0,0.6345,0.6346,0,0,0,0,0,0,0,0,0.6324,0.6326,0.6339,0.6339,0.6337,0.6342,0.6349,0.6366,0.633,0.6332,0.6327,0.6325,0.634,0.6341,0.6346,0.6378,0.6379,0.6345,0.6346,0.6347,0.6347,0,0,0,0,0,0,0,0.6323,0.6326,0.6355,0.634,0.6338,0.6331,0.6332,0.6352,0.6344,0.6332,0.633,0.6331,0.6339,0.6344,0.6346,0.6379,0.6345,0.6346,0.6348,0.6348,0.644,0.6442,0,0,0,0,0,0,0.6324,0.6325,0.6355,0.6355,0.6327,0.6333,0.6334,0.6342,0.6344,0.6342,0.6332,0.633,0.6342,0.6344,0.6346,0.6389,0.6347,0.6348,0.6349,0.6439,0.6441,0.6442,0,0,0,0,0,0,0.6323,0.6327,0.6354,0.634,0.6342,0.6335,0.6345,0.6343,0.6348,0.6344,0.6342,0.6339,0.6341,0.6344,0.6369,0.6389,0.6349,0.6351,0.6437,0.6439,0.6441,0.6476,0,0,0,0,0,0,0.6322,0.6327,0.6341,0.634,0.6343,0.6377,0.6346,0.6344,0.6351,0.6347,0.635,0.6349,0.634,0.6367,0.6371,0.6391,0.6352,0.6435,0.6438,0.6441,0.6473,0.6479,0.6485,0,0,0,0,0,0.6321,0.6351,0.6342,0.6345,0.6361,0.6378,0.638,0.6369,0.6352,0.6366,0.6363,0.6349,0.6386,0.637,0.6374,0.6395,0.6434,0.6437,0.644,0.6471,0.6478,0.6484,0,0,0,0,0,0,0.6356,0.6351,0.634,0.6372,0.6375,0.6373,0.6391,0.6378,0.6387,0.6384,0.6371,0.6371,0.6399,0.64,0.6381,0.6431,0.6407,0.6412,0.6429,0.6436,0.6441,0.644,0.6353,0,0,0,0,0,0.6367,0.6381,0.6376,0.6404,0.6407,0.6398,0.6406,0.6397,0.6401,0.6402,0.6401,0.6406,0.6419,0.6428,0.6439,0.6473,0.6473,0.649,0.6495,0.65,0.6503,0.652,0.6527,0.6453,0.6453,0.6453,0,0,0.6391,0.639,0.64,0.6411,0.6413,0.6428,0.64,0.6418,0.6428,0.6405,0.6428,0.6428,0.6432,0.6462,0.6475,0.6463,0.6524,0.6504,0.6508,0.6509,0.6524,0.6531,0.6537,0.6455,0.6454,0.6454,0,0,0.6441,0.6442,0.6465,0.6467,0.6469,0.6463,0.6469,0.6468,0.6467,0.649,0.6472,0.6485,0.6508,0.6511,0.6516,0.6565,0.6552,0.657,0.6599,0.6615,0.6621,0.6626,0.6643,0.6649,0.6574,0.6574,0.6574,0,0.647,0.6491,0.6478,0.6496,0.6501,0.648,0.6502,0.6505,0.6512,0.6516,0.6503,0.6529,0.6531,0.656,0.6572,0.6577,0.6582,0.6569,0.6621,0.6626,0.6631,0.6646,0.6653,0.6576,0.6575,0.6575,0.6575,0,0.6527,0.6541,0.6559,0.6565,0.6572,0.6593,0.6582,0.6591,0.6581,0.6577,0.66,0.6601,0.6611,0.6618,0.6609,0.6646,0.6638,0.6623,0.6599,0.664,0.6654,0.666,0.6579,0.6578,0.6577,0.6577,0,0,0.66,0.6596,0.6603,0.6605,0.6605,0.6617,0.6636,0.6645,0.6652,0.6658,0.6673,0.6692,0.6677,0.6683,0.6674,0.6688,0.6726,0.6672,0.6671,0.6681,0.6764,0.6775,0.6782,0.6717,0.6718,0.6719,0.6763,0,0.6648,0.6679,0.6667,0.6699,0.6712,0.6691,0.6708,0.671,0.6706,0.6717,0.6712,0.6725,0.6706,0.6709,0.6722,0.6719,0.6742,0.6715,0.673,0.6731,0.6729,0.679,0.6801,0.6843,0.6769,0.677,0.6771,0,0.6709,0.6715,0.6748,0.6744,0.6749,0.6764,0.6771,0.6781,0.6783,0.6779,0.6784,0.6772,0.679,0.6767,0.6791,0.6773,0.6778,0.6777,0.6779,0.6779,0.6753,0.6791,0.6857,0.6863,0.678,0.6779,0.6778,0,0.6757,0.6774,0.6795,0.6797,0.6794,0.6805,0.6805,0.6805,0.6811,0.6817,0.682,0.6829,0.6833,0.684,0.683,0.6815,0.6856,0.6832,0.6852,0.6853,0.6862,0.6861,0.6928,0.6867,0.6867,0.6867,0.6867,0,0.6812,0.6833,0.6816,0.683,0.6852,0.6838,0.6861,0.6858,0.6858,0.687,0.6853,0.6865,0.6852,0.6862,0.6855,0.6875,0.6878,0.6875,0.6873,0.6876,0.6876,0.6879,0.6875,0.6868,0.6868,0.6868,0.6867,0,0.687,0.686,0.6882,0.6876,0.6876,0.6892,0.6888,0.69,0.6894,0.6909,0.6912,0.6904,0.6915,0.6906,0.6918,0.6912,0.6939,0.6933,0.6938,0.6936,0.6956,0.6954,0.7027,0.7035,0.697,0.697,0.6971,0,0.6905,0.692,0.6916,0.6922,0.6922,0.6933,0.6938,0.6925,0.6931,0.6933,0.6945,0.6954,0.6961,0.698,0.6975,0.6984,0.6977,0.7002,0.6978,0.6981,0.6976,0.6975,0.6976,0.7007,0.7007,0.7008,0.7009,0,0.6968,0.6962,0.6969,0.6975,0.6981,0.6986,0.6989,0.6995,0.6981,0.6989,0.6999,0.7005,0.7015,0.7025,0.7031,0.7031,0.7017,0.7016,0.7021,0.7024,0.7026,0.7024,0.695,0.7014,0.7014,0.7013,0.7013,0.7013,0.7015,0.7026,0.7025,0.7034,0.7034,0.7037,0.7047,0.7042,0.705,0.7057,0.7049,0.7061,0.7061,0.7068,0.7069,0.7079,0.7069,0.7076,0.7078,0.708,0.7082,0.7025,0.708,0.708,0.708,0.708,0.708,0,0.7076,0.7073,0.7081,0.7085,0.7091,0.7077,0.7079,0.7086,0.7097,0.7098,0.7104,0.7116,0.7125,0.712,0.7127,0.7136,0.7129,0.7138,0.7137,0.7137,0.7092,0.7086,0.7143,0.7143,0.7143,0.7143,0.7143,0.7143,0.7108,0.7127,0.712,0.7138,0.7136,0.7147,0.7149,0.7152,0.7152,0.7165,0.7172,0.7168,0.7166,0.7173,0.718,0.7178,0.7182,0.7192,0.7188,0.7146,0.714,0.7134,0.7129,0.7193,0.7193,0.7232,0.7232,0.7233]}]]